星链-4727 (STARLINK-4727 )

导读

STARLINK-4727是美国太空探索技术公司(SpaceX)星链卫星互联网项目的卫星,于2022年9月11日发射升空,属于星链低轨卫星组网的组成部分,运行于近地轨道,服务全球高速互联网接入需求,星链系统通过大规模低轨卫星组网,为全球不同地区提供卫星宽带互联网服务。

基本信息
目录编号:
53803
目录名称:
STARLINK-4727
国际标识:
2022-111AG
轨道中心:
EARTH
卫星名称:
星链-4727
卫星全名:
星链-4727 (STARLINK-4727 )
卫星状态:
在轨 (已飞行1454 天)
发射日期:
2022-09-11 UTC
国别 :
美国 (US)
星等 :
--
轨道信息
数据来源 国际轨道数据
星历时间: 2026-09-02T09:02:39+0800
1天前
查看轨道信息
半长轴: 6837.817km
偏心率: 0.0001043
轨道倾角: 53.160°
近地点辐角 81.276°
升交点赤经 171.749°
平近点角 278.836°
近地点: 458.966km
远地点: 460.394km
周期: 93.786分钟
每日圈数: 15.35418
详细信息
固有亮度:
5
最大亮度:
2.5
卫星平台:
Starlink v1.5
覆盖范围:
全球
运营商:
太空探索技术公司
运营商所在国:
美国
制造商(研发单位):
太空探索技术公司
制造商所在国:
美国
使用方式:
暂无
卫星简介
星链(Starlink)计划是由太空探索技术公司(SpaceX)提出的一个巨型低轨卫星互联网星座项目,计划在2019年至2024年间在太空搭建由约1.2万颗卫星组成的“星链”网络,其中1584颗将部署在地球上空550千米处的近地轨道,并从2020年开始工作。该卫星仍在工作。
2D轨道图
3D轨道图
轨道高度分析图
轨道倾角分析图
轨道综合分析图
查看轨道综合分析图
交会数据列表
事件ID 空间交会对象 最接近时刻(TCA) 交会距离 交会风险概率(CRP) 交会风险指数(CRI) 操作
CDM_260903-112005-380305-846924
2026-09-03T
11:20:40+0000
0.862 km
远距离
4.47146E-5 中风险 0.68
CDM_260904-134805-380306-436421
2026-09-04T
13:48:22+0000
1.200 km
极远距离
1.2957E-5 中风险 0.57
CDM_260904-191004-379905-380322
HAWK-C (43799)
2026-09-04T
19:10:46+0000
1.631 km
极远距离
4.963092E-6 低风险 0.49
CDM_260829-001405-380306-166121
2026-08-29T
00:14:02+0000
2.602 km
极远距离
1.464986E-6 低风险 0.38
CDM_260904-152205-380306-436421
2026-09-04T
15:22:07+0000
2.644 km
极远距离
1.463947E-6 低风险 0.38
CDM_260903-120405-380306-952021
2026-09-03T
12:04:14+0000
2.629 km
极远距离
1.400313E-6 低风险 0.38
CDM_260904-174205-380306-436421
2026-09-04T
17:42:43+0000
2.816 km
极远距离
1.334908E-6 低风险 0.38
CDM_260903-104605-341405-380321
2026-09-03T
10:46:25+0000
2.883 km
极远距离
1.211381E-6 低风险 0.37
CDM_260904-064005-380306-694221
2026-09-04T
06:40:24+0000
2.856 km
极远距离
1.0186E-6 低风险 0.35